Location: Exeidioux
(45.6312°N, 1.6819°E)
Time: 16:30:47
(UTC+00:00)

H-2A R/B - Pass Details

Date: 03 March 2021
Orbit: 577 x 654 km, 98.5° (Epoch: 15 April)

Event Time Altitude Azimuth Distance (km) Brightness Sun altitude
Rises 18:31:36 0° 3° (N) 2,807 5.4 -9.3°
Reaches altitude 10° 18:34:01 10° 350° (N) 1,901 4.7 -9.7°
Maximum altitude 18:37:24 26° 294° (WNW) 1,168 4.4 -10.3°
Drops below altitude 10° 18:40:48 10° 238° (WSW) 1,896 5.5 -10.9°
Sets 18:43:13 0° 226° (SW) 2,797 6.1 -11.3°
